EHI
0 0 0 0 0 0 0 0 0 0 0 0 0 0 0 0 0 0 0 0 0 0 0 0 0 0 0 0 0 0 0 1 1 1 0 0 0 0 0 0 0 0 0 0
0 0 0 0 0 0 0 0 0 0 0 0 0 0 0 0 0 0 0 0 0 0 0 0 0 0 0 0 0 0 0 0 0 0 0 0 0 0 0 0 0 0 0 0
0 0 0 0 0 0 0 0 0 0 0 0 0 0 0 0 0 0 0 0 0 0 0 0 0 0 0 0 0 0 0 0 0 0 0 0 0 0 0 0 0 0 0 0
0 0 0 0 0 0 0 0 0 0 0 0 0 0 0 0 0 0 0 0 0 0 0 0 0 0 0 0 0 0 0 0 0 0 0 0 0 0 0 0 0 0 0 0
0 0 0 0 0 0 0 0 0 0 0 0 0 0 0 0 0 0 0 0 0 0 0 0 0 0 0 0 0 0 0 0 0 0 0 0 0 0 0 0 0 0 0 0
0 0 0 0 0 0 0 0 0 0 0 0 0 0 0 0 0 0 0 0 0 0 0 0 0 0 0 0 0 0 0 0 0 0 0 0 0 0 0 0 0 0 0 0
0 0 0 0 0 0 0 0 0 0 0 0 0 0 0 0 0 0 0 0 0 0 0 0 0 0 0 0 0 0 0 0 0 0 0 0 0 0 0 0 0 0 0 0
0 0 0 0 0 0 0 0 0 0 0 0 0 0 0 0 0 0 0 0 0 0 0 0 0 0 0 0 0 0 0 0 0 0 0 0 0 0 0 0 0 0 0 0
0 0 0 0 0 0 0 0 0 0 0 0 0 0 0 0 0 0 0 0 0 0 0 0 0 0 0 0 0 0 0 0 0 0 0 0 0 0 0 0 0 0 0 0
0 0 0 0 0 0 0 0 0 0 0 0 0 0 0 0 0 0 0 0 0 0 0 0 0 0 0 0 0 0 0 0 0 0 0 0 0 0 0 0 0 0 0 0
0 0 0 0 0 0 0 0 0 0 0 0 0 0 0 0 0 0 0 0 0 0 0 0 0 0 0 0 0 0 0 0 0 0 0 0 0 0 0 0 0 0 0 0
0 0 0 0 0 0 0 0 0 0 0 0 0 0 0 0 0 0 0 0 0 0 0 0 0 0 0 0 0 0 0 0 0 0 0 0 0 0 0 0 0 0 0 0
0 0 0 0 0 0 0 0 0 0 0 0 0 0 0 0 0 0 0 0 0 0 0 0 0 0 0 0 0 0 0 0 0 0 0 0 0 0 0 0 0 0 0 0
0 0 0 0 0 0 0 0 0 0 0 0 0 0 0 0 0 0 0 0 0 0 0 0 0 0 0 0 0 0 0 0 0 0 0 0 0 0 0 0 0 0 0 0
0 0 0 0 0 0 0 0 0 0 0 0 0 0 0 0 0 0 0 0 0 0 0 0 0 0 0 0 0 0 0 0 0 0 0 0 0 0 0 0 0 0 0 0
0 0 0 0 0 0 0 0 0 0 0 0 0 0 0 0 0 0 0 0 0 0 0 0 0 0 0 0 0 0 0 0 0 0 0 0 0 0 0 0 0 0 0 0
0 0 0 0 0 0 0 0 0 0 0 0 0 0 0 0 0 0 0 0 0 0 0 0 0 0 0 0 0 0 0 0 0 0 0 0 0 0 0 0 0 0 0 0
0 0 0 0 0 0 0 0 0 0 0 0 0 0 0 0 0 0 0 0 0 0 0 0 0 0 0 0 0 0 0 0 0 0 0 0 0 0 0 0 0 0 0 0
0 0 0 0 0 0 0 0 0 0 0 0 0 0 0 0 0 0 0 0 0 0 0 0 0 0 0 0 0 0 0 0 0 0 0 0 0 0 0 0 0 0 0 0
0 0 0 0 0 0 0 0 0 0 0 0 0 0 0 0 0 0 0 0 0 0 0 0 0 0 0 0 0 0 0 0 0 0 0 0 0 0 0 0 0 0 0 0
0 0 0 0 0 0 0 0 0 0 0 0 0 0 0 0 0 0 0 0 0 0 0 0 0 0 0 0 0 0 0 0 0 0 0 0 0 0 0 0 0 0 0 0
0 0 0 0 0 0 0 0 0 0 0 0 0 0 0 0 0 0 0 0 0 0 0 0 0 0 0 0 0 0 0 0 0 0 0 0 0 0 0 0 0 0 0 0
0 0 0 0 0 0 0 0 0 0 0 0 0 0 0 0 0 0 0 0 0 0 0 0 0 0 0 0 0 0 0 0 0 0 0 0 0 0 0 0 0 0 0 0
0 0 0 0 0 0 0 0 0 0 0 0 0 0 0 0 0 0 0 0 0 0 0 0 0 0 0 0 0 0 0 0 0 0 0 0 0 0 0 0 0 0 0 0
0 0 0 0 0 0 0 0 0 0 0 0 0 0 0 0 0 0 0 0 0 0 0 0 0 0 0 0 0 0 0 0 0 0 0 0 0 0 0 0 0 0 0 0
0 0 0 0 0 0 0 0 0 0 0 0 0 0 0 0 0 0 0 0 0 0 0 0 0 0 0 0 0 0 0 0 0 0 0 0 0 0 0 0 0 0 0 0
Wind_Speed
4 3 2 3 4 6 6 6 6 3 1 2 5 6 4 3 2 2 1 1 2 2 3 4 3 3 3 3 3 3 3 2 2 1 1 1 1 1 2 2 2 2 2 2
2 3 3 3 5 7 7 6 5 2 1 3 5 7 5 4 3 2 2 1 2 2 3 3 4 3 3 3 2 3 2 2 2 1 1 1 2 1 1 2 2 1 2 2
3 1 1 3 4 6 6 4 4 4 4 5 4 5 4 3 3 2 2 1 1 2 3 3 3 3 3 2 2 2 2 2 2 2 2 2 2 1 1 1 1 1 2 2
3 1 2 4 3 4 5 3 4 4 3 3 2 4 3 3 3 3 3 3 2 2 3 3 4 3 3 2 2 2 2 2 2 2 2 2 2 1 1 1 2 1 1 2
1 0 2 3 3 4 4 5 5 5 4 4 4 4 4 3 3 4 4 4 3 3 3 3 3 4 4 3 3 2 2 2 2 2 2 1 1 1 1 1 2 2 1 1
2 1 1 2 3 3 4 5 4 3 2 4 6 5 4 3 5 4 4 4 3 3 3 3 3 4 4 3 3 2 2 1 1 2 2 2 2 2 2 2 1 1 1 1
3 3 2 1 3 2 3 1 1 1 2 5 2 3 4 3 3 4 4 4 3 3 3 3 3 3 3 3 2 2 1 1 1 2 2 3 3 3 2 2 2 1 1 1
3 3 4 1 1 2 4 1 2 2 3 3 2 4 2 4 5 5 5 4 3 3 3 3 3 3 3 3 2 2 1 0 1 2 2 2 2 2 1 1 1 1 1 1
2 2 2 1 1 2 2 2 2 2 3 4 5 3 1 3 4 4 4 4 2 2 3 3 2 2 2 2 2 2 2 1 1 2 2 2 2 2 2 1 1 1 1 1
3 3 2 1 2 3 2 2 1 2 2 4 5 4 4 5 4 3 3 2 2 2 2 2 2 2 2 2 1 1 1 1 1 2 2 1 2 2 2 2 2 2 1 2
2 2 2 2 4 4 2 2 2 2 2 2 4 3 2 4 4 4 3 2 2 2 2 2 2 2 2 2 2 1 1 1 1 1 1 1 1 1 2 2 2 2 2 2
1 1 4 4 1 2 3 4 3 2 3 3 3 5 2 4 3 2 2 2 2 2 1 1 2 2 2 2 2 2 1 1 1 1 1 1 1 1 1 1 1 1 2 2
1 2 2 2 1 1 2 4 4 2 2 3 4 6 1 3 2 2 1 1 1 1 1 1 1 1 1 1 1 1 1 2 1 1 1 0 1 1 1 1 1 1 1 1
2 3 6 6 3 2 4 5 5 4 4 6 8 8 5 2 2 2 1 1 0 1 1 1 1 1 1 1 1 1 1 1 1 1 1 1 1 1 1 1 1 1 1 1
2 4 6 9 8 7 8 9 8 9 9 9 9 9 7 4 3 2 1 1 1 1 1 1 1 1 1 1 0 1 1 1 1 1 1 1 1 1 0 1 1 1 1 2
3 4 5 8 9 9 12 11 11 12 12 12 12 11 6 4 3 3 2 1 1 2 2 2 1 1 1 2 1 1 0 1 1 1 1 1 1 1 1 1 1 1 2 2
4 4 3 6 5 7 10 10 12 9 8 8 10 7 4 4 3 3 2 2 2 2 2 1 1 2 2 1 2 1 1 0 1 1 1 1 1 1 1 1 1 2 2 2
6 5 3 4 3 10 6 1 3 5 4 4 3 3 3 3 4 3 2 2 2 2 2 2 2 2 1 1 1 1 1 1 1 1 2 1 1 1 2 2 2 2 2 2
8 6 4 3 6 10 5 3 2 3 3 2 3 4 4 4 4 3 3 3 2 3 2 2 1 1 1 1 1 1 1 1 2 2 2 2 2 2 2 2 3 2 2 3
3 5 5 5 6 7 2 1 1 1 3 0 1 2 3 3 3 3 5 5 4 3 2 2 2 1 1 1 1 1 2 2 3 3 3 3 2 2 3 3 3 3 3 3
4 4 7 8 8 7 2 0 1 3 3 1 1 2 2 2 3 4 4 4 3 2 2 2 1 1 2 2 1 2 2 3 3 3 3 3 3 3 3 3 3 3 3 3
6 5 6 6 8 7 0 1 1 2 1 2 3 3 3 3 3 4 3 4 3 2 2 2 2 2 2 2 2 3 3 3 2 2 3 3 3 3 3 3 3 3 4 4
4 4 4 5 5 2 0 1 1 2 2 3 3 4 4 5 5 4 4 4 4 3 3 2 2 2 2 2 2 3 4 2 2 2 3 4 4 4 4 4 4 4 4 4
3 2 3 5 4 4 4 3 2 2 3 3 3 4 5 6 6 5 5 4 4 4 3 2 2 3 3 3 2 3 3 3 3 3 4 4 4 4 4 4 4 4 4 4
5 3 5 8 7 6 4 3 3 4 4 4 5 5 6 6 7 6 5 4 4 3 3 2 2 3 4 3 4 3 3 3 3 4 4 4 4 4 4 4 4 5 5 6
6 6 6 6 4 5 6 5 5 5 6 6 6 7 6 5 6 5 5 4 4 4 3 3 3 4 4 4 4 4 3 3 4 4 4 3 3 3 3 4 5 7 8 9
Wind_Direction
193 222 235 245 252 276 290 277 279 292 17 269 252 258 262 237 211 214 222 223 135 127 115 105 101 101 97 88 85 84 88 90 84 79 119 131 120 99 91 98 122 145 145 140
219 237 261 276 275 281 277 280 284 316 342 285 266 265 251 216 199 197 195 197 155 141 110 103 98 91 82 85 92 91 81 78 89 90 99 106 104 94 99 92 94 121 133 137
240 272 282 268 275 289 275 275 295 302 298 255 269 276 231 208 181 158 145 142 140 140 138 130 114 102 94 87 89 98 106 101 90 85 75 82 80 67 73 97 105 117 127 125
237 242 267 273 275 285 278 311 300 293 299 260 218 278 238 194 185 176 170 165 185 160 136 132 123 118 115 110 99 101 117 118 122 119 122 134 132 141 154 143 137 137 131 129
247 57 283 270 287 286 286 316 286 266 263 274 243 246 256 169 198 200 178 165 165 151 132 129 130 132 119 110 107 100 101 121 131 138 151 158 130 119 112 112 130 136 135 143
242 206 274 300 304 258 281 287 270 247 251 258 227 217 254 197 206 186 167 148 139 129 123 120 115 109 100 98 101 102 102 115 127 145 166 177 161 154 133 126 136 146 142 156
226 189 174 294 304 251 278 311 3 322 233 241 205 211 238 174 133 135 138 132 126 121 118 116 111 110 110 111 114 120 126 166 174 178 185 183 184 177 171 167 174 166 152 151
259 224 171 198 266 266 265 254 178 225 250 271 260 227 220 109 98 102 108 110 106 114 115 114 123 129 130 136 142 141 145 170 236 189 184 177 176 169 170 177 175 177 166 143
285 262 125 136 295 282 277 243 276 289 286 270 240 199 145 105 98 99 104 103 119 126 127 134 135 136 137 144 153 153 145 179 216 181 173 170 176 173 173 172 170 168 154 144
318 286 226 168 228 238 277 299 263 218 258 271 263 226 204 174 165 139 128 125 117 127 135 144 148 149 145 146 135 131 139 166 162 162 163 158 177 170 167 162 181 180 178 177
282 260 247 208 213 221 210 234 247 252 251 247 277 275 54 135 147 146 147 151 162 165 168 167 156 157 154 145 147 147 145 134 108 123 146 151 168 168 168 175 189 188 189 187
247 256 248 240 253 297 245 227 201 209 259 244 266 273 59 82 86 87 125 135 143 157 155 149 152 145 148 154 155 157 160 145 137 121 123 162 170 170 173 179 194 195 202 198
233 227 266 262 245 226 255 241 238 250 273 237 231 254 111 51 24 11 38 100 122 136 152 137 138 147 165 168 164 159 162 162 155 131 119 143 193 175 193 204 208 203 204 204
302 244 221 233 257 211 248 246 233 218 217 241 238 256 266 285 302 316 337 0 4 201 207 191 189 171 179 172 171 172 176 159 154 150 150 175 215 212 209 211 217 210 205 211
248 252 256 267 278 274 261 250 234 228 226 234 256 269 284 302 314 310 311 310 306 291 284 268 259 230 191 188 218 172 153 144 154 161 168 196 209 233 213 194 229 235 224 224
232 260 279 274 265 263 265 254 242 239 239 247 265 273 286 306 334 338 335 324 297 284 279 277 265 255 233 200 205 216 200 163 150 183 224 229 216 224 235 236 246 257 249 236
216 229 256 269 272 288 260 236 229 229 227 235 247 260 298 322 326 322 324 330 304 287 278 264 281 270 265 227 190 203 227 185 177 210 244 250 237 238 241 245 249 255 256 251
230 223 237 268 273 243 243 253 208 216 237 230 241 290 315 308 313 313 304 302 305 305 305 290 275 275 283 277 200 184 188 195 216 237 244 249 242 250 255 253 249 257 257 249
221 214 223 233 246 266 263 240 194 205 251 243 245 284 307 316 316 317 345 340 309 305 314 311 304 302 300 288 254 211 215 221 230 242 246 248 239 242 250 254 250 249 251 252
213 213 218 229 242 254 262 345 356 122 252 316 281 300 324 344 314 304 345 346 335 328 324 330 337 341 319 291 273 243 240 234 240 245 247 244 239 239 241 243 246 247 244 247
190 210 221 234 247 261 271 272 88 194 234 330 339 317 310 291 270 293 325 330 330 330 326 323 312 291 276 280 277 257 252 248 247 249 250 246 241 241 244 247 245 242 244 248
194 202 212 218 237 247 31 68 195 253 324 345 340 330 313 299 298 303 310 308 305 302 295 297 287 278 269 259 260 262 258 254 250 248 252 253 249 247 248 247 250 244 240 241
213 214 222 216 230 269 309 243 275 311 314 318 319 319 312 299 294 291 291 289 284 278 274 277 277 280 279 268 251 265 271 266 258 255 254 254 253 248 242 239 244 247 242 241
261 286 287 283 272 294 291 291 306 304 297 301 301 302 298 290 289 286 280 279 283 287 281 276 275 274 277 276 261 255 264 260 247 251 255 251 248 251 247 242 237 236 238 239
274 276 274 275 283 293 284 300 314 317 311 302 296 289 281 280 281 280 277 275 276 283 281 273 268 270 275 279 271 264 262 258 254 253 257 258 251 251 253 250 242 241 240 234
242 245 249 265 285 285 289 290 295 296 294 288 283 283 276 266 269 272 272 273 272 272 273 273 271 272 276 277 273 268 261 254 254 257 256 253 252 252 252 258 268 256 252 257